"Pseudo-MPEC" for MRA1422

Created 2024 Jul 13 0:22:04 UT using Find_Orb

Click here for an explanation of pseudo-MPECs

 
 Astrometry: 
     MRA1422*KB2024 07 07,#IveugI@,Astrometry.S/fy2ZSP'q[`r%WIO2MrPKoo6stv'M+Y66
     MRA1422 KB2024 07 07G'q'Z!redacted;/+6I#;''jmTGf^L5.M%'GU.O:VVe]jfFuVpSrY66
     MRA1422 KB2024 07 07QZDh=clickdhereLjS4=2;gJm[ZIF=9fiforCexplanationhBo?Y66

Station data:
(Y66) Two-Meter Twin Telescope, TTT2, Teide  (N28.298728 W16.509470)  Canary
   Islands (Spain).

Orbital elements:  MRA1422
   Perihelion 2024 Sep 28.49482 +/- 67.8 TT = 11:52:32 (JD 2460581.99482)
Epoch 2024 Jul  8.0 TT = JDT 2460499.5   Earth MOID: 0.0727   Ma: 0.0113
M 305.31493486 +/- 52               (J2000 ecliptic)             AutoNEOCP
n   0.66289088 +/- 0.405            Peri.  133.57969 +/- 90
a   1.30269081 +/- 0.53             Node   247.43760 +/- 51
e   0.3715802 +/- 0.283             Incl.   17.22965 +/- 18
P   1.49/543.07d           H 22.40  G  0.15   U 12.1  SR
q 0.81863670 +/- 0.192    Q 1.78674493 +/- 27.9
From 3 observations 2024 July 7 (6.6 min); mean residual 0".41
Residuals in arcseconds: 
240707 Y66  .01+  .40-    240707 Y66  .03-  .82+    240707 Y66  .02+  .42-    

Ephemerides (geocentric):
Date (UTC) HH   RA             Dec           delta  r     elong  mag " sig PA
---- --------  ------------   ------------  ------ ------ -----  --- --------
2024 07 13 00  17 09 29.488   +34 27 40.03  .26066 1.1497 114.6 21.7  28d 110
2024 07 13 01  17 09 20.258   +34 30 18.18  .26067 1.1494 114.5 21.7  28d 110
2024 07 13 02  17 09 11.024   +34 32 56.18  .26068 1.1491 114.4 21.7  28d 109
2024 07 13 03  17 09 01.786   +34 35 34.05  .26069 1.1489 114.4 21.7  28d 110
2024 07 13 04  17 08 52.545   +34 38 11.77  .26070 1.1486 114.3 21.7  28d 110
2024 07 13 05  17 08 43.300   +34 40 49.34  .26071 1.1484 114.2 21.8  28d 110
2024 07 13 06  17 08 34.051   +34 43 26.78  .26072 1.1481 114.2 21.8  28d 110
2024 07 13 07  17 08 24.799   +34 46 04.06  .26073 1.1479 114.1 21.8  28d 110
2024 07 13 08  17 08 15.543   +34 48 41.21  .26074 1.1476 114.0 21.8  29d 110
2024 07 13 09  17 08 06.284   +34 51 18.21  .26075 1.1474 113.9 21.8  29d 110
2024 07 13 10  17 07 57.021   +34 53 55.07  .26076 1.1471 113.9 21.8  29d 110
2024 07 13 11  17 07 47.754   +34 56 31.78  .26077 1.1469 113.8 21.8  29d 111
2024 07 13 12  17 07 38.483   +34 59 08.35  .26078 1.1466 113.7 21.8  29d 111
2024 07 13 13  17 07 29.209   +35 01 44.78  .26079 1.1464 113.7 21.8  29d 111
2024 07 13 14  17 07 19.932   +35 04 21.06  .26080 1.1461 113.6 21.8  29d 111
2024 07 13 15  17 07 10.651   +35 06 57.19  .26081 1.1459 113.5 21.8  29d 111
2024 07 13 16  17 07 01.366   +35 09 33.18  .26083 1.1456 113.5 21.8  29d 111
2024 07 13 17  17 06 52.078   +35 12 09.03  .26084 1.1454 113.4 21.8  29d 111
2024 07 13 18  17 06 42.786   +35 14 44.73  .26085 1.1451 113.3 21.8  29d 111
2024 07 13 19  17 06 33.491   +35 17 20.28  .26086 1.1449 113.3 21.8  29d 112
2024 07 13 20  17 06 24.192   +35 19 55.70  .26088 1.1446 113.2 21.8  29d 112
2024 07 13 21  17 06 14.889   +35 22 30.96  .26089 1.1444 113.1 21.8  29d 112
2024 07 13 22  17 06 05.583   +35 25 06.08  .26090 1.1441 113.1 21.8  29d 112
2024 07 13 23  17 05 56.274   +35 27 41.06  .26092 1.1439 113.0 21.8  29d 112
2024 07 14 00  17 05 46.961   +35 30 15.88  .26093 1.1436 112.9 21.8  29d 112
2024 07 14 01  17 05 37.644   +35 32 50.57  .26094 1.1434 112.8 21.8  29d 112
2024 07 14 02  17 05 28.325   +35 35 25.11  .26096 1.1431 112.8 21.8  29d 112
2024 07 14 03  17 05 19.001   +35 37 59.50  .26097 1.1429 112.7 21.8  29d 112
2024 07 14 04  17 05 09.674   +35 40 33.74  .26099 1.1426 112.6 21.8  29d 112
2024 07 14 05  17 05 00.344   +35 43 07.84  .26100 1.1424 112.6 21.8  29d 112
2024 07 14 06  17 04 51.010   +35 45 41.80  .26101 1.1421 112.5 21.8  29d 112
2024 07 14 07  17 04 41.673   +35 48 15.61  .26103 1.1419 112.4 21.8  29d 113
2024 07 14 08  17 04 32.332   +35 50 49.27  .26104 1.1416 112.4 21.8  29d 113
2024 07 14 09  17 04 22.988   +35 53 22.78  .26106 1.1414 112.3 21.8  29d 113
2024 07 14 10  17 04 13.640   +35 55 56.15  .26108 1.1411 112.2 21.8  29d 113
2024 07 14 11  17 04 04.289   +35 58 29.38  .26109 1.1409 112.2 21.8  29d 113
2024 07 14 12  17 03 54.935   +36 01 02.45  .26111 1.1406 112.1 21.8  29d 113
2024 07 14 13  17 03 45.577   +36 03 35.38  .26112 1.1404 112.0 21.8  29d 113
2024 07 14 14  17 03 36.216   +36 06 08.16  .26114 1.1401 112.0 21.8  29d 113
2024 07 14 15  17 03 26.851   +36 08 40.80  .26116 1.1399 111.9 21.8  29d 113
2024 07 14 16  17 03 17.483   +36 11 13.29  .26117 1.1396 111.8 21.8  29d 113
2024 07 14 17  17 03 08.112   +36 13 45.63  .26119 1.1394 111.7 21.8  29d 113
2024 07 14 18  17 02 58.737   +36 16 17.83  .26121 1.1391 111.7 21.8  29d 113
2024 07 14 19  17 02 49.359   +36 18 49.88  .26122 1.1389 111.6 21.8  29d 113
2024 07 14 20  17 02 39.978   +36 21 21.78  .26124 1.1386 111.5 21.8  29d 113
2024 07 14 21  17 02 30.593   +36 23 53.53  .26126 1.1384 111.5 21.8  29d 113
2024 07 14 22  17 02 21.205   +36 26 25.14  .26127 1.1381 111.4 21.8  29d 112
2024 07 14 23  17 02 11.813   +36 28 56.60  .26129 1.1379 111.3 21.8  29d 112